Northeast Philadelphia, PA

8:03 PM EST on December 11, 2017 (GMT -0500)
Northeast Philadelphia

Weather History for KPNE - March, 2014

Change the Weather History Date:

Saturday, March 22, 2014

  Actual Average Record
Temperature  
Mean Temperature 52 °F -  
Max Temperature 69 °F 51 °F 73 °F (2012)
Min Temperature 35 °F 33 °F 21 °F (2002)
Degree Days  
Heating Degree Days 14    
Growing Degree Days 2 (Base 50)    
Moisture  
Dew Point 27 °F    
Average Humidity 43    
Maximum Humidity 73    
Minimum Humidity 19    
Precipitation  
Precipitation 0.00 in - - ()
Sea Level Pressure  
Sea Level Pressure 29.91 in    
Wind  
Wind Speed 6 mph (WNW)    
Max Wind Speed 21 mph    
Max Gust Speed 33 mph    
Visibility 10 miles    
Events      
Averages and records for this station are not official NWS values.
T = Trace of Precipitation, MM = Missing Value Source: NWS Daily Summary

Daily Weather History Graph

Daily Weather History Graph

Search for Another Location

Airport or City:

Trip Planner

Search our weather history database for the weather conditions in past years. The results will help you decide how hot, cold, wet, or windy it might be!

Date:

Astronomy

Mar. 22, 2014 Rise Set
Actual Time 7:00 AM EDT 7:14 PM EDT
Civil Twilight 6:33 AM EDT 7:41 PM EDT
Nautical Twilight 6:01 AM EDT 8:13 PM EDT
Astronomical Twilight 5:29 AM EDT 8:45 PM EDT
Moon 12:31 AM EDT (3/22) 10:41 AM EDT (3/22)
Length of Visible Light 13h 08m
Length of Day
12h 13m
Waning Gibbous, 65% of the Moon is Illuminated
Mar 22
Waning Gibbous
Mar 23
Last Quarter
Mar 30
New
Apr 7
First Quarter
Apr 15
Full

Hourly Weather History & Observations

Time (EDT) Temp. Windchill Dew Point Humidity Pressure Visibility Wind Dir Wind Speed Gust Speed Precip Events Conditions
12:54 AM 37.9 °F - 21.9 °F 53% 30.05 in 10.0 mi Calm Calm - N/A   Clear
1:54 AM 35.1 °F - 21.9 °F 59% 30.04 in 10.0 mi Calm Calm - N/A   Clear
2:54 AM 35.1 °F - 24.1 °F 64% 30.02 in 10.0 mi Calm Calm - N/A   Clear
3:54 AM 36.0 °F 33.3 °F 25.0 °F 64% 29.99 in 10.0 mi East 3.5 mph - N/A   Clear
4:54 AM 37.9 °F 35.5 °F 28.9 °F 70% 29.97 in 10.0 mi ENE 3.5 mph - N/A   Clear
5:54 AM 36.0 °F 31.1 °F 28.0 °F 73% 29.92 in 10.0 mi NE 5.8 mph - N/A   Clear
6:54 AM 37.9 °F - 28.9 °F 70% 29.89 in 10.0 mi Calm Calm - N/A   Clear
7:54 AM 42.1 °F 40.2 °F 30.9 °F 65% 29.86 in 10.0 mi SSE 3.5 mph - N/A   Clear
8:54 AM 46.0 °F - 34.0 °F 63% 29.85 in 10.0 mi Calm Calm - N/A   Clear
9:54 AM 53.1 °F - 35.1 °F 50% 29.83 in 10.0 mi SW 13.8 mph 23.0 mph N/A   Clear
10:54 AM 57.0 °F - 34.0 °F 42% 29.82 in 10.0 mi WSW 20.7 mph 26.5 mph N/A   Clear
11:54 AM 59.0 °F - 34.0 °F 39% 29.82 in 10.0 mi SW 12.7 mph 21.9 mph N/A   Clear
12:54 PM 62.1 °F - 32.0 °F 32% 29.82 in 10.0 mi WSW 15.0 mph 23.0 mph N/A   Clear
1:54 PM 64.0 °F - 32.0 °F 30% 29.82 in 10.0 mi West 13.8 mph 21.9 mph N/A   Clear
2:54 PM 66.0 °F - 30.9 °F 27% 29.81 in 10.0 mi West 15.0 mph - N/A   Clear
3:54 PM 66.9 °F - 28.9 °F 24% 29.81 in 10.0 mi West 19.6 mph 33.4 mph N/A   Scattered Clouds
4:54 PM 68.0 °F - 24.1 °F 19% 29.83 in 10.0 mi WNW 16.1 mph 28.8 mph N/A   Partly Cloudy
5:54 PM 66.0 °F - 24.1 °F 20% 29.86 in 10.0 mi WNW 15.0 mph 21.9 mph N/A   Clear
6:54 PM 62.1 °F - 21.9 °F 21% 29.90 in 10.0 mi WNW 13.8 mph - N/A   Clear
7:54 PM 59.0 °F - 23.0 °F 25% 29.93 in 10.0 mi WNW 5.8 mph - N/A   Clear
8:54 PM 57.0 °F - 24.1 °F 28% 29.95 in 10.0 mi West 6.9 mph - N/A   Clear
9:54 PM 54.0 °F - 24.1 °F 31% 29.96 in 10.0 mi NNW 12.7 mph - N/A   Clear
10:54 PM 53.1 °F - 23.0 °F 31% 29.99 in 10.0 mi NNW 8.1 mph - N/A   Clear
11:54 PM 48.0 °F - 24.1 °F 39% 30.01 in 10.0 mi North 6.9 mph - N/A   Clear